N7BDR Weather Reports


Display with metric or nautical units.
time (UTC)temp
F
wind
direction
speed
MPH
gust
MPH
rain 1hr
in
rain 24hr
in
rain mn
in
humidity
%
barometer
mb
20260902155415 78 246 6.0 16.0 0.00 0.00 0.00 36 1005.8
20260902154922 78 181 4.0 13.0 0.00 0.00 0.00 37 1005.9
20260902154409 78 272 4.0 13.0 0.00 0.00 0.00 37 1005.8
20260902153918 77 265 5.0 23.0 0.00 0.00 0.00 37 1005.8
20260902153416 77 178 6.0 23.0 0.00 0.00 0.00 37 1006.0
20260902152911 77 268 6.0 23.0 0.00 0.00 0.00 38 1005.9
20260902151803 76 266 6.0 16.0 0.00 0.00 0.00 38 1006.0
20260902151306 76 244 6.0 18.0 0.00 0.00 0.00 39 1006.0
20260902150803 75 232 6.0 18.0 0.00 0.00 0.00 40 1006.0
20260902150308 75 249 6.0 18.0 0.00 0.00 0.00 42 1005.9
20260902145755 75 181 5.0 18.0 0.00 0.00 0.00 41 1005.8
20260902145255 75 156 4.0 17.0 0.00 0.00 0.00 42 1005.7
20260902144129 74 169 7.0 17.0 0.00 0.00 0.00 43 1005.7
20260902143636 74 177 6.0 17.0 0.00 0.00 0.00 43 1005.6
20260902143125 74 150 5.0 16.0 0.00 0.00 0.00 44 1005.6
20260902142626 73 258 6.0 16.0 0.00 0.00 0.00 44 1005.6
20260902142131 73 202 5.0 16.0 0.00 0.00 0.00 44 1005.7
20260902141630 73 217 4.0 13.0 0.00 0.00 0.00 44 1005.7
20260902141133 73 245 4.0 10.0 0.00 0.00 0.00 45 1005.6
20260902140632 72 230 4.0 11.0 0.00 0.00 0.00 45 1005.7
20260902135516 72 161 3.0 12.0 0.00 0.00 0.00 46 1005.7
20260902134958 71 166 4.0 12.0 0.00 0.00 0.00 46 1005.6
20260902133826 69 271 2.0 8.0 0.00 0.00 0.00 50 1005.5
20260902132718 68 188 2.0 7.0 0.00 0.00 0.00 52 1005.7
20260902131545 68 188 2.0 6.0 0.00 0.00 0.00 53 1005.9
20260902131054 68 237 2.0 8.0 0.00 0.00 0.00 53 1005.8
20260902130602 68 243 2.0 8.0 0.00 0.00 0.00 53 1005.7
20260902130106 68 171 2.0 8.0 0.00 0.00 0.00 52 1005.7
20260902125608 68 260 3.0 8.0 0.00 0.00 0.00 52 1005.6
20260902125104 68 185 3.0 8.0 0.00 0.00 0.00 52 1005.7
20260902124601 68 250 2.0 7.0 0.00 0.00 0.00 52 1005.6
20260902124112 67 247 1.0 6.0 0.00 0.00 0.00 52 1005.6
20260902123554 67 275 0.0 4.0 0.00 0.00 0.00 52 1005.7
20260902123035 68 258 0.0 4.0 0.00 0.00 0.00 51 1005.7
20260902122534 68 257 0.0 4.0 0.00 0.00 0.00 51 1005.7
20260902122021 69 274 1.0 5.0 0.00 0.00 0.00 50 1005.6
20260902121509 69 192 1.0 5.0 0.00 0.00 0.00 49 1005.6
20260902121005 69 286 1.0 6.0 0.00 0.00 0.00 49 1005.7
20260902120514 69 290 1.0 6.0 0.00 0.00 0.00 49 1005.6
20260902120018 69 252 1.0 6.0 0.00 0.00 0.00 48 1005.5
20260902115517 69 270 1.0 6.0 0.00 0.00 0.00 48 1005.5
20260902115023 69 266 1.0 6.0 0.00 0.00 0.00 47 1005.5
20260902114509 70 269 2.0 7.0 0.00 0.00 0.00 47 1005.5
20260902113326 70 265 1.0 7.0 0.00 0.00 0.00 46 1005.6
20260902112833 69 260 1.0 7.0 0.00 0.00 0.00 46 1005.5
20260902112336 69 256 1.0 5.0 0.00 0.00 0.00 45 1005.5
20260902111833 70 271 1.0 6.0 0.00 0.00 0.00 45 1005.4
20260902111322 70 257 1.0 6.0 0.00 0.00 0.00 45 1005.3
20260902105520 70 253 2.0 6.0 0.00 0.00 0.00 46 1005.3
20260902105014 70 256 2.0 6.0 0.00 0.00 0.00 46 1005.4
20260902104509 70 268 1.0 5.0 0.00 0.00 0.00 46 1005.3
20260902104008 70 279 1.0 5.0 0.00 0.00 0.00 47 1005.4
20260902103454 70 267 1.0 6.0 0.00 0.00 0.00 47 1005.4
20260902102954 70 272 1.0 6.0 0.00 0.00 0.00 46 1005.4
20260902101840 70 263 2.0 6.0 0.00 0.00 0.00 46 1005.4
20260902101335 70 259 1.0 6.0 0.00 0.00 0.00 46 1005.5
20260902100840 69 233 1.0 6.0 0.00 0.00 0.00 46 1005.6
20260902100329 69 268 1.0 6.0 0.00 0.00 0.00 47 1005.5
20260902095825 68 265 1.0 4.0 0.00 0.00 0.00 48 1005.6
20260902095319 68 261 1.0 4.0 0.00 0.00 0.00 49 1005.7
20260902094816 68 206 0.0 4.0 0.00 0.00 0.00 49 1005.6
20260902094321 69 272 0.0 4.0 0.00 0.00 0.00 49 1005.7
20260902093815 69 258 1.0 7.0 0.00 0.00 0.00 49 1005.8
20260902093302 69 294 1.0 7.0 0.00 0.00 0.00 49 1005.9
20260902092748 69 270 2.0 9.0 0.00 0.00 0.00 49 1005.9
20260902092247 70 267 2.0 9.0 0.00 0.00 0.00 50 1005.8
20260902091735 70 237 2.0 10.0 0.00 0.00 0.00 50 1005.9
20260902091234 70 182 3.0 10.0 0.00 0.00 0.00 49 1005.8
20260902090732 71 228 3.0 10.0 0.00 0.00 0.00 49 1005.9
20260902090223 70 237 3.0 10.0 0.00 0.00 0.00 50 1005.7
20260902085710 70 232 3.0 9.0 0.00 0.00 0.00 50 1005.7
20260902085217 71 226 3.0 9.0 0.00 0.00 0.00 49 1005.8
20260902084105 70 204 3.0 8.0 0.00 0.00 0.00 50 1005.7
20260902083559 70 212 3.0 8.0 0.00 0.00 0.00 51 1005.8
20260902083046 71 177 3.0 9.0 0.00 0.00 0.00 51 1005.8
20260902082557 71 222 4.0 9.0 0.00 0.00 0.00 51 1005.8
20260902082041 71 208 4.0 12.0 0.00 0.00 0.00 51 1005.7
20260902081523 71 219 4.0 12.0 0.00 0.00 0.00 50 1005.8
20260902080413 71 234 5.0 13.0 0.00 0.00 0.00 49 1005.8
20260902075919 71 182 4.0 13.0 0.00 0.00 0.00 49 1005.7
20260902075403 71 229 5.0 15.0 0.00 0.00 0.00 49 1005.8
20260902074906 72 160 5.0 15.0 0.00 0.00 0.00 48 1005.7
20260902073802 72 261 4.0 15.0 0.00 0.00 0.00 47 1005.6
20260902073254 72 170 4.0 14.0 0.00 0.00 0.00 46 1005.5
20260902072748 72 206 4.0 13.0 0.00 0.00 0.00 46 1005.4
20260902072238 72 175 4.0 13.0 0.00 0.00 0.00 46 1005.4
20260902071724 72 268 4.0 10.0 0.00 0.00 0.00 46 1005.3
20260902071211 73 236 4.0 12.0 0.00 0.00 0.00 46 1005.3
20260902070715 73 255 5.0 12.0 0.00 0.00 0.00 46 1005.3
20260902070225 73 210 4.0 12.0 0.00 0.00 0.00 46 1005.3
20260902065722 72 208 4.0 12.0 0.00 0.00 0.00 46 1005.3
20260902065219 72 239 4.0 11.0 0.00 0.00 0.00 47 1005.4
20260902064716 72 141 4.0 11.0 0.00 0.00 0.00 47 1005.4
20260902063556 72 201 4.0 11.0 0.00 0.00 0.00 49 1005.4
20260902063052 72 218 3.0 11.0 0.00 0.00 0.00 50 1005.4
20260902062556 72 157 3.0 11.0 0.00 0.00 0.00 50 1005.3
20260902061414 71 247 2.0 7.0 0.00 0.00 0.00 51 1005.4
20260902060924 71 258 2.0 7.0 0.00 0.00 0.00 50 1005.4
20260902060412 72 242 2.0 10.0 0.00 0.00 0.00 50 1005.4
20260902055853 72 258 3.0 11.0 0.00 0.00 0.00 49 1005.5
20260902055357 72 258 3.0 11.0 0.00 0.00 0.00 49 1005.4
20260902054846 72 269 3.0 11.0 0.00 0.00 0.00 49 1005.5
20260902054333 72 186 4.0 11.0 0.00 0.00 0.00 49 1005.5
20260902053828 72 135 3.0 8.0 0.00 0.00 0.00 49 1005.5
20260902053323 72 255 3.0 8.0 0.00 0.00 0.00 49 1005.5
20260902052810 72 268 2.0 12.0 0.00 0.00 0.00 49 1005.5
20260902052300 73 161 3.0 12.0 0.00 0.00 0.00 49 1005.6
20260902051750 73 207 3.0 12.0 0.00 0.00 0.00 48 1005.6
20260902051250 73 227 3.0 12.0 0.00 0.00 0.00 49 1005.6
20260902050747 73 190 3.0 9.0 0.00 0.00 0.00 48 1005.6
20260902050237 73 217 3.0 9.0 0.00 0.00 0.00 48 1005.6
20260902045744 73 199 2.0 9.0 0.00 0.00 0.00 48 1005.6
20260902045241 73 236 2.0 9.0 0.00 0.00 0.00 48 1005.6
20260902044730 73 261 1.0 8.0 0.00 0.00 0.00 47 1005.6
20260902044229 73 271 2.0 9.0 0.00 0.00 0.00 47 1005.6
20260902041759 74 290 2.0 7.0 0.00 0.00 0.00 47 1005.6
20260902041259 75 164 2.0 10.0 0.00 0.00 0.00 47 1005.5
20260902040143 75 228 5.0 11.0 0.00 0.00 0.00 47 1005.5
20260902035648 75 280 4.0 12.0 0.00 0.00 0.00 47 1005.5
20260902035129 75 272 3.0 12.0 0.00 0.00 0.00 48 1005.4
20260902034619 75 168 4.0 12.0 0.00 0.00 0.00 47 1005.4
20260902034106 75 280 4.0 12.0 0.00 0.00 0.00 47 1005.4
20260902033605 75 151 3.0 10.0 0.00 0.00 0.00 47 1005.4
20260902033111 75 156 2.0 9.0 0.00 0.00 0.00 47 1005.4
20260902032605 75 165 3.0 9.0 0.00 0.00 0.00 47 1005.3
20260902032053 75 167 3.0 9.0 0.00 0.00 0.00 47 1005.3
20260902031536 75 248 3.0 8.0 0.00 0.00 0.00 46 1005.3
20260902031041 76 269 2.0 8.0 0.00 0.00 0.00 46 1005.3
20260902030530 76 241 2.0 7.0 0.00 0.00 0.00 45 1005.3
20260902030022 76 220 2.0 10.0 0.00 0.00 0.00 44 1005.3
20260902025531 76 204 1.0 10.0 0.00 0.00 0.00 44 1005.2
20260902025033 76 169 2.0 10.0 0.00 0.00 0.00 43 1005.2
20260902024523 76 243 2.0 10.0 0.00 0.00 0.00 43 1005.1
20260902024005 77 183 2.0 8.0 0.00 0.00 0.00 42 1005.0
20260902023509 77 225 3.0 9.0 0.00 0.00 0.00 42 1005.0
20260902023006 77 263 3.0 9.0 0.00 0.00 0.00 41 1004.9
20260902022501 77 206 3.0 10.0 0.00 0.00 0.00 40 1004.9
20260902021959 78 194 3.0 10.0 0.00 0.00 0.00 40 1004.8
20260902021508 78 168 3.0 11.0 0.00 0.00 0.00 39 1004.8
20260902020957 78 236 4.0 11.0 0.00 0.00 0.00 39 1004.9
20260902020502 78 215 4.0 11.0 0.00 0.00 0.00 39 1004.8
20260902015942 78 182 4.0 11.0 0.00 0.00 0.00 38 1004.8
20260902014821 79 201 4.0 12.0 0.00 0.00 0.00 38 1004.9
20260902014318 79 149 4.0 13.0 0.00 0.00 0.00 39 1004.8
20260902013806 79 227 4.0 13.0 0.00 0.00 0.00 39 1004.8
20260902013305 79 179 4.0 13.0 0.00 0.00 0.00 38 1004.8
20260902012801 79 169 3.0 13.0 0.00 0.00 0.00 39 1004.8
20260902012248 80 255 4.0 12.0 0.00 0.00 0.00 38 1005.0
20260902011744 80 256 5.0 14.0 0.00 0.00 0.00 38 1004.9
20260902011243 80 243 5.0 15.0 0.00 0.00 0.00 38 1005.1
20260902010111 81 274 5.0 18.0 0.00 0.00 0.00 38 1005.2
20260902005619 81 232 6.0 18.0 0.00 0.00 0.00 36 1005.3
20260902005128 81 224 5.0 18.0 0.00 0.00 0.00 37 1005.4
20260902004635 81 166 4.0 18.0 0.00 0.00 0.00 36 1005.4
20260902004136 81 182 3.0 14.0 0.00 0.00 0.00 37 1005.4
20260902003631 81 239 4.0 14.0 0.00 0.00 0.00 37 1005.5
20260902003142 81 182 5.0 14.0 0.00 0.00 0.00 37 1005.5
20260902002632 81 173 5.0 14.0 0.00 0.00 0.00 36 1005.6
20260902002129 82 213 4.0 12.0 0.00 0.00 0.00 36 1005.5
20260902001027 81 168 5.0 15.0 0.00 0.02 0.00 36 1005.7
20260902000515 81 216 5.0 15.0 0.00 0.02 0.00 36 1005.6
20260901235335 82 182 4.0 15.0 0.00 0.04 0.00 35 1005.7
20260901234834 81 184 4.0 14.0 0.00 0.05 0.00 36 1005.7
20260901234336 82 187 3.0 14.0 0.00 0.07 0.00 36 1005.8
20260901233845 82 166 3.0 14.0 0.00 0.07 0.00 35 1005.9
20260901233331 84 257 3.0 9.0 0.00 0.09 0.00 35 1005.8
20260901232831 83 267 4.0 13.0 0.00 0.09 0.00 34 1006.0
20260901232314 83 181 4.0 13.0 0.00 0.12 0.00 35 1006.0
20260901231817 82 131 4.0 13.0 0.00 0.14 0.00 35 1006.0
20260901231310 83 71 4.0 13.0 0.00 0.14 0.00 35 1005.8
20260901230148 83 192 2.0 11.0 0.00 0.14 0.00 35 1006.1
20260901225643 83 278 3.0 11.0 0.00 0.14 0.00 36 1006.1
20260901224503 82 256 5.0 13.0 0.00 0.14 0.00 36 1006.4
20260901223953 83 237 4.0 13.0 0.00 0.14 0.00 36 1006.5
20260901223500 83 216 5.0 13.0 0.00 0.14 0.00 36 1006.6
20260901223008 83 164 6.0 15.0 0.00 0.14 0.00 35 1006.6
20260901222512 83 111 5.0 15.0 0.00 0.14 0.00 35 1006.7
20260901222002 83 157 4.0 15.0 0.00 0.14 0.00 34 1006.8
20260901221445 83 173 3.0 15.0 0.00 0.14 0.00 35 1006.8
20260901220941 83 321 3.0 14.0 0.00 0.14 0.00 36 1007.0
20260901215821 81 182 5.0 16.0 0.00 0.14 0.00 35 1007.1
20260901215309 82 221 6.0 19.0 0.00 0.14 0.00 34 1007.2
20260901214808 83 166 5.0 19.0 0.00 0.14 0.00 35 1007.2
20260901214315 83 138 6.0 19.0 0.00 0.14 0.00 35 1007.3
20260901213822 83 247 6.0 19.0 0.00 0.14 0.00 34 1007.1
20260901213318 83 116 5.0 13.0 0.00 0.14 0.00 36 1007.4
20260901212818 83 274 4.0 16.0 0.00 0.14 0.00 36 1007.4
20260901212316 82 231 5.0 16.0 0.00 0.14 0.00 38 1007.6
20260901211801 82 260 7.0 16.0 0.00 0.14 0.00 37 1007.7
20260901211241 82 232 5.0 16.0 0.00 0.14 0.00 37 1007.7
20260901210732 82 248 4.0 10.0 0.00 0.14 0.00 38 1007.8
20260901205549 82 115 5.0 16.0 0.00 0.14 0.00 38 1008.1
20260901205058 82 188 4.0 16.0 0.00 0.14 0.00 38 1008.2
20260901204558 82 215 3.0 16.0 0.00 0.14 0.00 39 1008.3
20260901204105 81 219 4.0 16.0 0.00 0.14 0.00 40 1008.4
20260901202311 79 217 3.0 13.0 0.00 0.14 0.00 41 1008.8
20260901195915 79 265 4.0 11.0 0.00 0.14 0.00 43 1009.1
20260901194744 79 153 5.0 19.0 0.00 0.14 0.00 43 1009.3
20260901194249 79 230 6.0 19.0 0.00 0.14 0.00 43 1009.4
20260901193123 78 180 6.0 19.0 0.00 0.14 0.00 44 1009.4
20260901192617 77 169 6.0 17.0 0.00 0.14 0.00 45 1009.4
20260901192124 77 182 7.0 18.0 0.00 0.14 0.00 44 1009.5
20260901191630 77 157 6.0 18.0 0.00 0.14 0.00 45 1009.6
20260901191118 77 168 6.0 18.0 0.00 0.14 0.00 46 1009.6
20260901190616 76 197 7.0 18.0 0.00 0.14 0.00 45 1009.8
20260901190121 77 223 6.0 17.0 0.00 0.14 0.00 45 1009.8
20260901185631 76 183 5.0 17.0 0.00 0.14 0.00 46 1009.8
20260901184508 76 171 7.0 19.0 0.00 0.14 0.00 46 1009.9
20260901183957 76 156 8.0 20.0 0.00 0.14 0.00 45 1009.9
20260901182827 76 181 9.0 20.0 0.00 0.14 0.00 45 1009.9
20260901181716 76 278 7.0 19.0 0.00 0.14 0.00 46 1010.1
20260901180558 75 173 9.0 22.0 0.00 0.14 0.00 46 1010.2
20260901180041 75 182 8.0 22.0 0.00 0.14 0.00 46 1010.2
20260901175524 75 180 8.0 22.0 0.00 0.14 0.00 47 1010.2
20260901175013 75 161 9.0 21.0 0.00 0.14 0.00 46 1010.3
20260901174515 75 147 9.0 21.0 0.00 0.14 0.00 46 1010.3
20260901174021 76 152 7.0 21.0 0.00 0.14 0.00 44 1010.4
20260901172855 75 156 7.0 19.0 0.00 0.14 0.00 46 1010.4
20260901172356 75 253 7.0 19.0 0.00 0.14 0.00 46 1010.4
20260901171903 75 173 7.0 19.0 0.00 0.14 0.00 47 1010.5
20260901171400 75 242 7.0 19.0 0.00 0.14 0.00 45 1010.6
20260901170855 76 232 7.0 19.0 0.00 0.14 0.00 46 1010.5
20260901165736 75 165 7.0 19.0 0.00 0.14 0.00 48 1010.5
20260901165225 74 198 9.0 19.0 0.00 0.14 0.00 51 1010.6
20260901164708 73 198 8.0 18.0 0.00 0.14 0.00 49 1010.6
20260901164154 72 192 6.0 18.0 0.00 0.14 0.00 52 1010.5
20260901163641 71 206 6.0 17.0 0.00 0.14 0.00 53 1010.5
20260901163124 71 178 6.0 17.0 0.00 0.14 0.00 53 1010.4
20260901162011 71 256 7.0 15.0 0.00 0.14 0.00 52 1010.5
20260901161517 71 270 7.0 15.0 0.00 0.14 0.00 52 1010.5